START_TIME,STEP,MOV.,A46,t_acc.,A13,t_acc.,M47,t_acc.,A17,t_acc.,A28,t_acc.,M38,t_acc.
1981-08-30 12:00:26.040 ,5,0,,0,0.,4.8,0.,4.8,,0,0.,4.8,0.,4.8
1981-08-30 12:00:30.840 ,5,0,,0,0.,4.8,0.,4.8,,0,0.,4.8,0.,4.8
1981-08-30 12:00:35.640 ,5,0,,0,0.,4.8,0.,4.8,,0,0.,4.8,0.,4.8
1981-08-30 12:00:40.440 ,5,0,,0,0.,4.8,0.,4.8,,0,0.,4.8,0.,4.8
1981-08-30 12:00:45.240 ,5,0,,0,0.,4.8,0.,4.8,,0,0.,4.8,0.,4.8
1981-08-30 12:00:50.040 ,6,0,,0,0.,4.8,0.,4.8,,0,0.,4.8,0.,4.8
1981-08-30 12:00:54.840 ,6,0,,0,0.,4.8,0.,4.8,,0,0.,4.8,0.,4.8
1981-08-30 12:00:59.640 ,6,0,,0,0.,4.8,0.,4.8,,0,0.,4.8,0.,4.8
1981-08-30 12:01:04.440 ,6,0,,0,0.,4.8,0.,4.8,,0,0.,4.8,0.,4.8
1981-08-30 12:01:09.240 ,6,0,,0,0.,4.8,0.,4.8,,0,0.,4.8,0.,4.8
1981-08-30 12:01:14.040 ,6,0,,0,0.,4.8,0.,4.8,,0,0.,4.8,0.,4.8
1981-08-30 12:01:18.840 ,6,0,,0,0.,4.8,0.,4.8,,0,0.,4.8,0.,4.8
1981-08-30 12:01:23.640 ,6,0,,0,0.,4.8,0.,4.8,,0,0.,4.8,0.,4.8
1981-08-30 12:01:28.440 ,6,0,,0,0.,4.8,0.,4.8,,0,0.,4.8,0.,4.8
1981-08-30 12:01:33.240 ,6,0,,0,0.,4.8,0.,4.8,,0,0.,4.8,0.,4.8
1981-08-30 12:01:38.040 ,7,0,,0,0.,4.8,0.,4.8,,0,0.,4.8,0.,4.8
1981-08-30 12:01:42.840 ,7,0,,0,0.,4.8,0.,4.8,,0,0.,4.8,0.,4.8
1981-08-30 12:01:47.640 ,7,0,,0,0.,4.8,0.,4.8,,0,0.,4.8,0.,4.8
1981-08-30 12:01:52.440 ,7,0,,0,0.,4.8,0.,4.8,,0,0.,4.8,0.,4.8
1981-08-30 12:01:57.240 ,7,0,,0,0.,4.8,0.,4.8,,0,0.,4.8,0.,4.8
1981-08-30 12:02:02.040 ,7,0,,0,0.,4.8,0.,4.8,,0,0.,4.8,0.,4.8
1981-08-30 12:02:06.840 ,7,0,,0,0.,4.8,0.,4.8,,0,0.,4.8,0.,4.8
1981-08-30 12:02:11.640 ,7,0,,0,0.,4.8,0.,4.8,,0,0.,4.8,0.,4.8
1981-08-30 12:02:16.440 ,7,0,,0,0.,4.8,0.,4.8,,0,0.,4.8,0.,4.8
1981-08-30 12:02:21.240 ,7,0,,0,0.,4.8,0.,4.8,,0,0.,4.8,0.,4.8
1981-08-30 12:02:26.040 ,7,0,,0,1.,4.8,0.,4.8,,0,0.,4.8,0.,4.8
1981-08-30 12:02:30.840 ,7,0,,0,0.,4.8,0.,4.8,,0,0.,4.8,0.,4.8
1981-08-30 12:02:35.640 ,7,0,,0,0.,4.8,0.,4.8,,0,0.,4.8,0.,4.8
1981-08-30 12:02:40.440 ,7,0,,0,0.,4.8,0.,4.8,,0,0.,4.8,0.,4.8
1981-08-30 12:02:45.240 ,7,0,,0,0.,4.8,0.,4.8,,0,0.,4.8,0.,4.8
1981-08-30 12:02:50.040 ,7,0,,0,0.,4.8,0.,4.8,,0,0.,4.8,0.,4.8
1981-08-30 12:02:54.840 ,7,0,,0,0.,4.8,0.,4.8,,0,0.,4.8,0.,4.8
1981-08-30 12:02:59.640 ,7,0,,0,0.,4.8,0.,4.8,,0,0.,4.8,0.,4.8
1981-08-30 12:03:04.440 ,7,0,,0,0.,4.8,0.,4.8,,0,0.,4.8,0.,4.8
1981-08-30 12:03:09.240 ,7,0,,0,0.,4.8,0.,4.8,,0,0.,4.8,0.,4.8
1981-08-30 12:03:14.040 ,6,0,,0,0.,4.8,0.,4.8,,0,0.,4.8,0.,4.8
1981-08-30 12:03:18.840 ,6,0,,0,0.,4.8,0.,4.8,,0,0.,4.8,0.,4.8
1981-08-30 12:03:23.640 ,6,0,,0,0.,4.8,0.,4.8,,0,0.,4.8,0.,4.8
1981-08-30 12:03:28.440 ,6,0,,0,0.,4.8,0.,4.8,,0,0.,4.8,0.,4.8
1981-08-30 12:03:33.240 ,6,0,,0,0.,4.8,0.,4.8,,0,0.,4.8,0.,4.8
1981-08-30 12:03:38.040 ,6,0,,0,0.,4.8,0.,4.8,,0,0.,4.8,0.,4.8
1981-08-30 12:03:42.840 ,6,0,,0,0.,4.8,0.,4.8,,0,0.,4.8,0.,4.8
1981-08-30 12:03:47.640 ,6,0,,0,0.,4.8,0.,4.8,,0,0.,4.8,0.,4.8
1981-08-30 12:03:52.440 ,6,0,,0,0.,4.8,0.,4.8,,0,0.,4.8,0.,4.8
1981-08-30 12:03:57.240 ,6,0,,0,0.,4.8,0.,4.8,,0,0.,4.8,0.,4.8
1981-08-30 12:04:02.040 ,5,0,,0,0.,4.8,0.,4.8,,0,0.,4.8,0.,4.8
1981-08-30 12:04:06.840 ,5,0,,0,0.,4.8,0.,4.8,,0,0.,4.8,0.,4.8
1981-08-30 12:04:11.640 ,5,0,,0,0.,4.8,0.,4.8,,0,0.,4.8,0.,4.8
1981-08-30 12:04:16.440 ,5,0,,0,0.,4.8,0.,4.8,,0,0.,4.8,0.,4.8
1981-08-30 12:04:21.240 ,5,0,,0,0.,4.8,0.,4.8,,0,0.,4.8,0.,4.8
1981-08-30 12:04:26.040 ,5,0,,0,0.,4.8,0.,4.8,,0,0.,4.8,0.,4.8
1981-08-30 12:04:30.840 ,5,0,,0,0.,4.8,0.,4.8,,0,0.,4.8,0.,4.8
1981-08-30 12:04:35.640 ,5,0,,0,0.,4.8,0.,4.8,,0,0.,4.8,0.,4.8
1981-08-30 12:04:40.430 ,5,0,,0,0.,4.8,0.,4.8,,0,0.,4.8,0.,4.8
1981-08-30 12:04:45.240 ,5,0,,0,0.,4.8,0.,4.8,,0,0.,4.8,0.,4.8
1981-08-30 12:04:50.040 ,4,0,,0,0.,4.8,0.,4.8,,0,0.,4.8,0.,4.8
1981-08-30 12:04:54.830 ,4,0,,0,0.,4.8,0.,4.8,,0,0.,4.8,0.,4.8
1981-08-30 12:04:59.640 ,4,0,,0,0.,4.8,0.,4.8,,0,0.,4.8,0.,4.8
1981-08-30 12:05:04.430 ,4,0,,0,0.,4.8,0.,4.8,,0,0.,4.8,0.,4.8
1981-08-30 12:05:09.240 ,4,0,,0,0.,4.8,0.,4.8,,0,0.,4.8,0.,4.8
1981-08-30 12:05:14.040 ,4,0,,0,1.,4.8,0.,4.8,,0,0.,4.8,0.,4.8
1981-08-30 12:05:18.840 ,4,0,,0,0.,4.8,0.,4.8,,0,0.,4.8,0.,4.8
1981-08-30 12:05:23.640 ,4,0,,0,0.,4.8,0.,4.8,,0,0.,4.8,0.,4.8
1981-08-30 12:05:28.440 ,4,0,,0,0.,4.8,0.,4.8,,0,0.,4.8,0.,4.8
1981-08-30 12:05:33.240 ,4,0,,0,0.,4.8,0.,4.8,,0,0.,4.8,0.,4.8
1981-08-30 12:05:38.040 ,3,0,,0,0.,4.8,0.,4.8,,0,0.,4.8,0.,4.8
1981-08-30 12:05:42.840 ,3,0,,0,0.,4.8,0.,4.8,,0,0.,4.8,0.,4.8
1981-08-30 12:05:47.640 ,3,0,,0,0.,4.8,0.,4.8,,0,0.,4.8,0.,4.8
1981-08-30 12:05:52.440 ,3,0,,0,0.,4.8,0.,4.8,,0,0.,4.8,0.,4.8
1981-08-30 12:05:57.240 ,3,0,,0,0.,4.8,0.,4.8,,0,0.,4.8,0.,4.8
1981-08-30 12:06:02.040 ,3,0,,0,0.,4.8,0.,4.8,,0,0.,4.8,0.,4.8
1981-08-30 12:06:06.840 ,3,0,,0,0.,4.8,0.,4.8,,0,0.,4.8,0.,4.8
1981-08-30 12:06:11.640 ,3,0,,0,0.,4.8,0.,4.8,,0,0.,4.8,0.,4.8
1981-08-30 12:06:16.440 ,3,0,,0,0.,4.8,0.,4.8,,0,0.,4.8,0.,4.8
1981-08-30 12:06:21.240 ,3,0,,0,0.,4.8,0.,4.8,,0,0.,4.8,0.,4.8
1981-08-30 12:06:26.040 ,2,0,,0,0.,4.8,0.,4.8,,0,0.,4.8,0.,4.8
1981-08-30 12:06:30.840 ,2,0,,0,0.,4.8,0.,4.8,,0,0.,4.8,0.,4.8
1981-08-30 12:06:35.640 ,2,0,,0,0.,4.8,0.,4.8,,0,0.,4.8,0.,4.8
1981-08-30 12:06:40.430 ,2,0,,0,0.,4.8,0.,4.8,,0,0.,4.8,0.,4.8
1981-08-30 12:06:45.240 ,2,0,,0,0.,4.8,0.,4.8,,0,0.,4.8,0.,4.8
1981-08-30 12:06:50.040 ,2,0,,0,0.,4.8,0.,4.8,,0,0.,4.8,0.,4.8
1981-08-30 12:06:54.830 ,2,0,,0,0.,4.8,0.,4.8,,0,0.,4.8,0.,4.8
1981-08-30 12:06:59.640 ,2,0,,0,0.,4.8,0.,4.8,,0,0.,4.8,0.,4.8
1981-08-30 12:07:04.430 ,2,0,,0,0.,4.8,0.,4.8,,0,0.,4.8,0.,4.8
1981-08-30 12:07:09.240 ,2,0,,0,0.,4.8,0.,4.8,,0,0.,4.8,0.,4.8
1981-08-30 12:07:14.040 ,1,0,,0,0.,4.8,0.,4.8,,0,0.,4.8,0.,4.8
1981-08-30 12:07:18.840 ,1,0,,0,0.,4.8,0.,4.8,,0,0.,4.8,0.,4.8
1981-08-30 12:07:23.640 ,1,0,,0,0.,4.8,0.,4.8,,0,0.,4.8,0.,4.8
1981-08-30 12:07:28.430 ,1,0,,0,0.,4.8,0.,4.8,,0,0.,4.8,0.,4.8
1981-08-30 12:07:33.240 ,1,0,,0,0.,4.8,0.,4.8,,0,0.,4.8,0.,4.8
1981-08-30 12:07:38.040 ,1,0,,0,0.,4.8,0.,4.8,,0,0.,4.8,0.,4.8
1981-08-30 12:07:42.840 ,1,0,,0,0.,4.8,0.,4.8,,0,0.,4.8,0.,4.8
1981-08-30 12:07:47.640 ,1,0,,0,0.,4.8,0.,4.8,,0,0.,4.8,0.,4.8
1981-08-30 12:07:52.440 ,1,0,,0,0.,4.8,0.,4.8,,0,0.,4.8,0.,4.8
1981-08-30 12:07:57.240 ,1,0,,0,0.,4.8,0.,4.8,,0,0.,4.8,0.,4.8
1981-08-30 12:08:02.040 ,0,0,,0,0.,4.8,0.,4.8,,0,0.,4.8,0.,4.8
1981-08-30 12:08:06.840 ,0,0,,0,0.,4.8,0.,4.8,,0,0.,4.8,0.,4.8
1981-08-30 12:08:11.640 ,0,0,,0,0.,4.8,0.,4.8,,0,0.,4.8,0.,4.8
1981-08-30 12:08:16.440 ,0,0,,0,0.,4.8,0.,4.8,,0,0.,4.8,0.,4.8
1981-08-30 12:08:21.240 ,0,0,,0,0.,4.8,0.,4.8,,0,0.,4.8,0.,4.8
1981-08-30 12:08:26.040 ,0,0,,0,0.,4.8,0.,4.8,,0,0.,4.8,0.,4.8
1981-08-30 12:08:30.840 ,0,0,,0,0.,4.8,0.,4.8,,0,0.,4.8,0.,4.8
1981-08-30 12:08:35.640 ,0,0,,0,0.,4.8,0.,4.8,,0,0.,4.8,0.,4.8
1981-08-30 12:08:40.430 ,0,0,,0,0.,4.8,0.,4.8,,0,0.,4.8,0.,4.8
1981-08-30 12:08:45.240 ,0,0,,0,0.,4.8,0.,4.8,,0,0.,4.8,0.,4.8
1981-08-30 12:08:50.030 ,0,0,,0,0.,4.8,0.,4.8,,0,0.,4.8,0.,4.8
1981-08-30 12:08:54.830 ,0,0,,0,0.,4.8,0.,4.8,,0,0.,4.8,0.,4.8
1981-08-30 12:08:59.630 ,0,0,,0,0.,4.8,0.,4.8,,0,0.,4.8,0.,4.8
1981-08-30 12:09:04.430 ,0,0,,0,0.,4.8,0.,4.8,,0,0.,4.8,0.,4.8
1981-08-30 12:09:09.230 ,0,0,,0,0.,4.8,0.,4.8,,0,0.,4.8,0.,4.8
1981-08-30 12:09:14.030 ,0,0,,0,0.,4.8,0.,4.8,,0,0.,4.8,0.,4.8
1981-08-30 12:09:18.830 ,0,0,,0,0.,4.8,0.,4.8,,0,0.,4.8,0.,4.8
1981-08-30 12:09:23.640 ,0,0,,0,0.,4.8,0.,4.8,,0,0.,4.8,0.,4.8
1981-08-30 12:09:28.430 ,0,0,,0,0.,4.8,0.,4.8,,0,0.,4.8,0.,4.8
1981-08-30 12:09:33.230 ,0,0,,0,0.,4.8,0.,4.8,,0,0.,4.8,0.,4.8
1981-08-30 12:09:38.030 ,1,0,,0,0.,4.8,0.,4.8,,0,0.,4.8,0.,4.8
1981-08-30 12:09:42.830 ,1,0,,0,0.,4.8,0.,4.8,,0,0.,4.8,0.,4.8
1981-08-30 12:09:47.640 ,1,0,,0,0.,4.8,0.,4.8,,0,0.,4.8,0.,4.8
1981-08-30 12:09:52.430 ,1,0,,0,0.,4.8,0.,4.8,,0,0.,4.8,0.,4.8
1981-08-30 12:09:57.230 ,1,0,,0,0.,4.8,0.,4.8,,0,0.,4.8,0.,4.8
1981-08-30 12:10:02.030 ,1,0,,0,0.,4.8,0.,4.8,,0,0.,4.8,0.,4.8
1981-08-30 12:10:06.830 ,1,0,,0,0.,4.8,0.,4.8,,0,0.,4.8,0.,4.8
1981-08-30 12:10:11.630 ,1,0,,0,0.,4.8,0.,4.8,,0,0.,4.8,0.,4.8
1981-08-30 12:10:16.430 ,1,0,,0,0.,4.8,0.,4.8,,0,0.,4.8,0.,4.8
1981-08-30 12:10:21.230 ,1,0,,0,0.,4.8,0.,4.8,,0,0.,4.8,0.,4.8
1981-08-30 12:10:26.030 ,2,0,,0,0.,4.8,0.,4.8,,0,0.,4.8,0.,4.8
1981-08-30 12:10:30.830 ,2,0,,0,0.,4.8,0.,4.8,,0,0.,4.8,0.,4.8
1981-08-30 12:10:35.630 ,2,0,,0,0.,4.8,0.,4.8,,0,0.,4.8,0.,4.8
1981-08-30 12:10:40.430 ,2,0,,0,0.,4.8,0.,4.8,,0,0.,4.8,0.,4.8
1981-08-30 12:10:45.230 ,2,0,,0,0.,4.8,0.,4.8,,0,0.,4.8,0.,4.8
1981-08-30 12:10:50.030 ,2,0,,0,0.,4.8,0.,4.8,,0,0.,4.8,0.,4.8
1981-08-30 12:10:54.830 ,2,0,,0,0.,4.8,0.,4.8,,0,0.,4.8,0.,4.8
1981-08-30 12:10:59.630 ,2,0,,0,0.,4.8,0.,4.8,,0,0.,4.8,0.,4.8
1981-08-30 12:11:04.430 ,2,0,,0,0.,4.8,0.,4.8,,0,0.,4.8,0.,4.8
1981-08-30 12:11:09.230 ,2,0,,0,0.,4.8,0.,4.8,,0,0.,4.8,0.,4.8
1981-08-30 12:11:14.030 ,3,0,,0,0.,4.8,0.,4.8,,0,0.,4.8,0.,4.8
1981-08-30 12:11:18.830 ,3,0,,0,0.,4.8,0.,4.8,,0,0.,4.8,0.,4.8
1981-08-30 12:11:23.640 ,3,0,,0,0.,4.8,0.,4.8,,0,0.,4.8,0.,4.8
1981-08-30 12:11:28.430 ,3,0,,0,0.,4.8,0.,4.8,,0,0.,4.8,0.,4.8
1981-08-30 12:11:33.230 ,3,0,,0,0.,4.8,0.,4.8,,0,0.,4.8,0.,4.8
1981-08-30 12:11:38.030 ,4,0,,0,0.,4.8,0.,4.8,,0,0.,4.8,0.,4.8
1981-08-30 12:11:42.830 ,4,0,,0,0.,4.8,0.,4.8,,0,0.,4.8,0.,4.8
1981-08-30 12:11:47.640 ,4,0,,0,0.,4.8,0.,4.8,,0,0.,4.8,0.,4.8
1981-08-30 12:11:52.430 ,4,0,,0,0.,4.8,0.,4.8,,0,0.,4.8,0.,4.8
1981-08-30 12:11:57.230 ,4,0,,0,0.,4.8,0.,4.8,,0,0.,4.8,0.,4.8
1981-08-30 12:12:02.030 ,5,0,,0,0.,4.8,0.,4.8,,0,0.,4.8,0.,4.8
1981-08-30 12:12:06.830 ,5,0,,0,0.,4.8,0.,4.8,,0,0.,4.8,0.,4.8
1981-08-30 12:12:11.630 ,5,0,,0,0.,4.8,0.,4.8,,0,0.,4.8,0.,4.8
1981-08-30 12:12:16.430 ,5,0,,0,0.,4.8,0.,4.8,,0,0.,4.8,0.,4.8
1981-08-30 12:12:21.230 ,5,0,,0,0.,4.8,0.,4.8,,0,0.,4.8,0.,4.8
1981-08-30 12:12:26.030 ,6,0,,0,0.,4.8,0.,4.8,,0,0.,4.8,0.,4.8
1981-08-30 12:12:30.830 ,6,0,,0,0.,4.8,0.,4.8,,0,0.,4.8,0.,4.8
1981-08-30 12:12:35.630 ,6,0,,0,1.,4.8,0.,4.8,,0,0.,4.8,0.,4.8
1981-08-30 12:12:40.430 ,6,0,,0,0.,4.8,0.,4.8,,0,0.,4.8,0.,4.8
1981-08-30 12:12:45.230 ,6,0,,0,0.,4.8,0.,4.8,,0,0.,4.8,0.,4.8
1981-08-30 12:12:50.030 ,7,0,,0,1.,4.8,0.,4.8,,0,0.,4.8,0.,4.8
1981-08-30 12:12:54.830 ,7,0,,0,0.,4.8,0.,4.8,,0,0.,4.8,0.,4.8
1981-08-30 12:12:59.630 ,7,0,,0,0.,4.8,0.,4.8,,0,0.,4.8,0.,4.8
1981-08-30 12:13:04.430 ,7,0,,0,1.,4.8,0.,4.8,,0,0.,4.8,0.,4.8
1981-08-30 12:13:09.230 ,7,0,,0,0.,4.8,0.,4.8,,0,0.,4.8,0.,4.8
1981-08-30 12:13:14.030 ,7,0,,0,0.,4.8,0.,4.8,,0,0.,4.8,0.,4.8
1981-08-30 12:13:18.830 ,7,0,,0,0.,4.8,0.,4.8,,0,0.,4.8,0.,4.8
1981-08-30 12:13:23.640 ,7,0,,0,0.,4.8,0.,4.8,,0,0.,4.8,0.,4.8
1981-08-30 12:13:28.430 ,7,0,,0,0.,4.8,0.,4.8,,0,0.,4.8,0.,4.8
1981-08-30 12:13:33.230 ,7,0,,0,0.,4.8,0.,4.8,,0,1.,4.8,0.,4.8
1981-08-30 12:13:38.030 ,6,0,,0,0.,4.8,0.,4.8,,0,0.,4.8,0.,4.8
1981-08-30 12:13:42.830 ,6,0,,0,0.,4.8,0.,4.8,,0,0.,4.8,0.,4.8
1981-08-30 12:13:47.640 ,6,0,,0,1.,4.8,0.,4.8,,0,0.,4.8,0.,4.8
1981-08-30 12:13:52.430 ,6,0,,0,0.,4.8,0.,4.8,,0,0.,4.8,0.,4.8
1981-08-30 12:13:57.230 ,6,0,,0,1.,4.8,0.,4.8,,0,0.,4.8,0.,4.8
1981-08-30 12:14:02.030 ,5,0,,0,0.,4.8,0.,4.8,,0,0.,4.8,0.,4.8
1981-08-30 12:14:06.830 ,5,0,,0,0.,4.8,0.,4.8,,0,0.,4.8,0.,4.8
1981-08-30 12:14:11.630 ,5,0,,0,0.,4.8,0.,4.8,,0,0.,4.8,0.,4.8
1981-08-30 12:14:16.430 ,5,0,,0,0.,4.8,0.,4.8,,0,0.,4.8,0.,4.8
1981-08-30 12:14:21.230 ,5,0,,0,0.,4.8,0.,4.8,,0,0.,4.8,0.,4.8
1981-08-30 12:14:26.030 ,4,0,,0,0.,4.8,0.,4.8,,0,0.,4.8,0.,4.8
1981-08-30 12:14:30.830 ,4,0,,0,0.,4.8,0.,4.8,,0,0.,4.8,0.,4.8
1981-08-30 12:14:35.630 ,4,0,,0,0.,4.8,0.,4.8,,0,0.,4.8,0.,4.8
1981-08-30 12:14:40.430 ,4,0,,0,0.,4.8,0.,4.8,,0,0.,4.8,0.,4.8
1981-08-30 12:14:45.230 ,4,0,,0,0.,4.8,0.,4.8,,0,0.,4.8,0.,4.8
1981-08-30 12:14:50.030 ,3,0,,0,0.,4.8,0.,4.8,,0,0.,4.8,0.,4.8
1981-08-30 12:14:54.830 ,3,0,,0,0.,4.8,0.,4.8,,0,0.,4.8,0.,4.8
1981-08-30 12:14:59.630 ,3,0,,0,0.,4.8,0.,4.8,,0,0.,4.8,0.,4.8
1981-08-30 12:15:04.430 ,3,0,,0,0.,4.8,0.,4.8,,0,0.,4.8,0.,4.8
1981-08-30 12:15:09.230 ,3,0,,0,0.,4.8,0.,4.8,,0,0.,4.8,0.,4.8
1981-08-30 12:15:14.030 ,2,0,,0,0.,4.8,0.,4.8,,0,0.,4.8,0.,4.8
1981-08-30 12:15:18.830 ,2,0,,0,0.,4.8,0.,4.8,,0,0.,4.8,0.,4.8
1981-08-30 12:15:23.640 ,2,0,,0,0.,4.8,0.,4.8,,0,0.,4.8,0.,4.8
1981-08-30 12:15:28.430 ,2,0,,0,0.,4.8,0.,4.8,,0,0.,4.8,0.,4.8
1981-08-30 12:15:33.230 ,2,0,,0,0.,4.8,0.,4.8,,0,0.,4.8,0.,4.8
1981-08-30 12:15:38.030 ,1,0,,0,0.,4.8,0.,4.8,,0,0.,4.8,0.,4.8
1981-08-30 12:15:42.830 ,1,0,,0,0.,4.8,0.,4.8,,0,0.,4.8,0.,4.8
1981-08-30 12:15:47.640 ,1,0,,0,0.,4.8,0.,4.8,,0,0.,4.8,0.,4.8
1981-08-30 12:15:52.430 ,1,0,,0,0.,4.8,0.,4.8,,0,0.,4.8,0.,4.8
1981-08-30 12:15:57.230 ,1,0,,0,0.,4.8,0.,4.8,,0,0.,4.8,0.,4.8
1981-08-30 12:16:02.030 ,0,0,,0,0.,4.8,0.,4.8,,0,0.,4.8,0.,4.8
1981-08-30 12:16:06.830 ,0,0,,0,0.,4.8,0.,4.8,,0,0.,4.8,0.,4.8
1981-08-30 12:16:11.630 ,0,0,,0,0.,4.8,0.,4.8,,0,0.,4.8,0.,4.8
1981-08-30 12:16:16.430 ,0,0,,0,0.,4.8,0.,4.8,,0,0.,4.8,0.,4.8
1981-08-30 12:16:21.230 ,0,0,,0,0.,4.8,0.,4.8,,0,0.,4.8,0.,4.8
1981-08-30 12:16:26.030 ,0,0,,0,0.,4.8,0.,4.8,,0,0.,4.8,0.,4.8
1981-08-30 12:16:30.830 ,0,0,,0,0.,4.8,0.,4.8,,0,0.,4.8,0.,4.8
1981-08-30 12:16:35.640 ,0,0,,0,0.,4.8,0.,4.8,,0,0.,4.8,0.,4.8
1981-08-30 12:16:40.430 ,0,0,,0,0.,4.8,0.,4.8,,0,0.,4.8,0.,4.8
1981-08-30 12:16:45.230 ,0,0,,0,0.,4.8,0.,4.8,,0,0.,4.8,0.,4.8
1981-08-30 12:16:50.030 ,1,0,,0,0.,4.8,0.,4.8,,0,0.,4.8,0.,4.8
1981-08-30 12:16:54.830 ,1,0,,0,0.,4.8,0.,4.8,,0,0.,4.8,0.,4.8
1981-08-30 12:16:59.630 ,1,0,,0,0.,4.8,0.,4.8,,0,0.,4.8,0.,4.8
1981-08-30 12:17:04.430 ,1,0,,0,0.,4.8,0.,4.8,,0,0.,4.8,0.,4.8
1981-08-30 12:17:09.230 ,1,0,,0,0.,4.8,0.,4.8,,0,0.,4.8,0.,4.8
1981-08-30 12:17:14.040 ,2,0,,0,0.,4.8,0.,4.8,,0,0.,4.8,0.,4.8
1981-08-30 12:17:18.840 ,2,0,,0,0.,4.8,0.,4.8,,0,0.,4.8,0.,4.8
1981-08-30 12:17:23.640 ,2,0,,0,0.,4.8,0.,4.8,,0,0.,4.8,0.,4.8
1981-08-30 12:17:28.440 ,2,0,,0,0.,4.8,0.,4.8,,0,0.,4.8,0.,4.8
1981-08-30 12:17:33.240 ,2,0,,0,0.,4.8,0.,4.8,,0,0.,4.8,0.,4.8
1981-08-30 12:17:38.040 ,3,0,,0,0.,4.8,0.,4.8,,0,0.,4.8,0.,4.8
1981-08-30 12:17:42.840 ,3,0,,0,0.,4.8,0.,4.8,,0,0.,4.8,0.,4.8
1981-08-30 12:17:47.640 ,3,0,,0,0.,4.8,0.,4.8,,0,0.,4.8,0.,4.8
1981-08-30 12:17:52.440 ,3,0,,0,0.,4.8,0.,4.8,,0,0.,4.8,0.,4.8
1981-08-30 12:17:57.240 ,3,0,,0,0.,4.8,0.,4.8,,0,0.,4.8,0.,4.8
1981-08-30 12:18:02.040 ,3,0,,0,0.,4.8,0.,4.8,,0,0.,4.8,0.,4.8
1981-08-30 12:18:06.840 ,3,0,,0,0.,4.8,0.,4.8,,0,0.,4.8,0.,4.8
1981-08-30 12:18:11.640 ,3,0,,0,0.,4.8,0.,4.8,,0,0.,4.8,0.,4.8
1981-08-30 12:18:16.440 ,3,0,,0,0.,4.8,0.,4.8,,0,0.,4.8,0.,4.8
1981-08-30 12:18:21.240 ,3,0,,0,1.,4.8,0.,4.8,,0,0.,4.8,0.,4.8
1981-08-30 12:18:26.040 ,4,0,,0,0.,4.8,0.,4.8,,0,0.,4.8,0.,4.8
1981-08-30 12:18:30.840 ,4,0,,0,0.,4.8,0.,4.8,,0,0.,4.8,0.,4.8
1981-08-30 12:18:35.640 ,4,0,,0,0.,4.8,0.,4.8,,0,0.,4.8,0.,4.8
1981-08-30 12:18:40.440 ,4,0,,0,0.,4.8,0.,4.8,,0,0.,4.8,0.,4.8
1981-08-30 12:18:45.240 ,4,0,,0,0.,4.8,1.,4.8,,0,0.,4.8,0.,4.8
1981-08-30 12:18:50.040 ,4,0,,0,0.,4.8,0.,4.8,,0,0.,4.8,0.,4.8
1981-08-30 12:18:54.840 ,4,0,,0,0.,4.8,0.,4.8,,0,0.,4.8,0.,4.8
1981-08-30 12:18:59.640 ,4,0,,0,0.,4.8,0.,4.8,,0,0.,4.8,0.,4.8
1981-08-30 12:19:04.440 ,4,0,,0,0.,4.8,0.,4.8,,0,0.,4.8,0.,4.8
1981-08-30 12:19:09.240 ,4,0,,0,0.,4.8,0.,4.8,,0,0.,4.8,0.,4.8
1981-08-30 12:19:14.040 ,5,0,,0,0.,4.8,0.,4.8,,0,0.,4.8,0.,4.8
1981-08-30 12:19:18.840 ,5,0,,0,0.,4.8,0.,4.8,,0,0.,4.8,0.,4.8
1981-08-30 12:19:23.640 ,5,0,,0,0.,4.8,0.,4.8,,0,0.,4.8,0.,4.8
1981-08-30 12:19:28.440 ,5,0,,0,0.,4.8,0.,4.8,,0,0.,4.8,0.,4.8
1981-08-30 12:19:33.230 ,5,0,,0,0.,4.8,0.,4.8,,0,0.,4.8,0.,4.8
1981-08-30 12:19:38.040 ,5,0,,0,0.,4.8,0.,4.8,,0,0.,4.8,0.,4.8
1981-08-30 12:19:42.840 ,5,0,,0,0.,4.8,0.,4.8,,0,0.,4.8,0.,4.8
1981-08-30 12:19:47.640 ,5,0,,0,0.,4.8,0.,4.8,,0,0.,4.8,0.,4.8
1981-08-30 12:19:52.440 ,5,0,,0,0.,4.8,0.,4.8,,0,0.,4.8,0.,4.8
1981-08-30 12:19:57.240 ,5,0,,0,0.,4.8,0.,4.8,,0,0.,4.8,0.,4.8
1981-08-30 12:20:02.030 ,6,0,,0,0.,4.8,0.,4.8,,0,0.,4.8,0.,4.8
1981-08-30 12:20:06.830 ,6,0,,0,0.,4.8,0.,4.8,,0,0.,4.8,0.,4.8
1981-08-30 12:20:11.630 ,6,0,,0,0.,4.8,0.,4.8,,0,0.,4.8,0.,4.8
1981-08-30 12:20:16.430 ,6,0,,0,0.,4.8,0.,4.8,,0,0.,4.8,0.,4.8
1981-08-30 12:20:21.230 ,6,0,,0,0.,4.8,0.,4.8,,0,0.,4.8,0.,4.8
1981-08-30 12:20:26.030 ,6,0,,0,0.,4.8,0.,4.8,,0,0.,4.8,0.,4.8
1981-08-30 12:20:30.830 ,6,0,,0,0.,4.8,0.,4.8,,0,0.,4.8,0.,4.8
1981-08-30 12:20:35.630 ,6,0,,0,0.,4.8,0.,4.8,,0,0.,4.8,0.,4.8
1981-08-30 12:20:40.430 ,6,0,,0,0.,4.8,0.,4.8,,0,0.,4.8,0.,4.8
1981-08-30 12:20:45.230 ,6,0,,0,1.,4.8,0.,4.8,,0,0.,4.8,0.,4.8
1981-08-30 12:20:50.030 ,7,0,,0,0.,4.8,0.,4.8,,0,0.,4.8,0.,4.8
1981-08-30 12:20:54.830 ,7,0,,0,0.,4.8,0.,4.8,,0,0.,4.8,0.,4.8
1981-08-30 12:20:59.630 ,7,0,,0,0.,4.8,0.,4.8,,0,0.,4.8,0.,4.8
1981-08-30 12:21:04.430 ,7,0,,0,0.,4.8,0.,4.8,,0,0.,4.8,0.,4.8
1981-08-30 12:21:09.230 ,7,0,,0,0.,4.8,0.,4.8,,0,0.,4.8,0.,4.8
1981-08-30 12:21:14.030 ,7,0,,0,0.,4.8,0.,4.8,,0,0.,4.8,0.,4.8
1981-08-30 12:21:18.830 ,7,0,,0,0.,4.8,0.,4.8,,0,0.,4.8,0.,4.8
1981-08-30 12:21:23.630 ,7,0,,0,0.,4.8,0.,4.8,,0,0.,4.8,0.,4.8
1981-08-30 12:21:28.430 ,7,0,,0,0.,4.8,0.,4.8,,0,0.,4.8,0.,4.8
1981-08-30 12:21:33.230 ,7,0,,0,0.,4.8,0.,4.8,,0,0.,4.8,0.,4.8
1981-08-30 12:21:38.030 ,7,0,,0,0.,4.8,0.,4.8,,0,0.,4.8,0.,4.8
1981-08-30 12:21:42.830 ,7,0,,0,0.,4.8,0.,4.8,,0,0.,4.8,0.,4.8
1981-08-30 12:21:47.630 ,7,0,,0,0.,4.8,0.,4.8,,0,0.,4.8,0.,4.8
1981-08-30 12:21:52.430 ,7,0,,0,0.,4.8,0.,4.8,,0,0.,4.8,0.,4.8
1981-08-30 12:21:57.230 ,7,0,,0,0.,4.8,0.,4.8,,0,0.,4.8,0.,4.8
1981-08-30 12:22:02.030 ,7,0,,0,0.,4.8,0.,4.8,,0,0.,4.8,0.,4.8
1981-08-30 12:22:06.830 ,7,0,,0,0.,4.8,0.,4.8,,0,0.,4.8,0.,4.8
1981-08-30 12:22:11.630 ,7,0,,0,0.,4.8,0.,4.8,,0,0.,4.8,0.,4.8
1981-08-30 12:22:16.430 ,7,0,,0,0.,4.8,0.,4.8,,0,0.,4.8,0.,4.8
1981-08-30 12:22:21.230 ,7,0,,0,0.,4.8,0.,4.8,,0,0.,4.8,0.,4.8
1981-08-30 12:22:26.030 ,6,0,,0,0.,4.8,0.,4.8,,0,0.,4.8,0.,4.8
1981-08-30 12:22:30.830 ,6,0,,0,0.,4.8,0.,4.8,,0,0.,4.8,0.,4.8
1981-08-30 12:22:35.630 ,6,0,,0,0.,4.8,0.,4.8,,0,0.,4.8,0.,4.8
1981-08-30 12:22:40.430 ,6,0,,0,0.,4.8,0.,4.8,,0,0.,4.8,0.,4.8
1981-08-30 12:22:45.230 ,6,0,,0,0.,4.8,0.,4.8,,0,0.,4.8,0.,4.8
1981-08-30 12:22:50.030 ,6,0,,0,0.,4.8,0.,4.8,,0,0.,4.8,0.,4.8
1981-08-30 12:22:54.830 ,6,0,,0,0.,4.8,0.,4.8,,0,0.,4.8,0.,4.8
1981-08-30 12:22:59.630 ,6,0,,0,0.,4.8,0.,4.8,,0,0.,4.8,0.,4.8
1981-08-30 12:23:04.430 ,6,0,,0,0.,4.8,0.,4.8,,0,0.,4.8,0.,4.8
1981-08-30 12:23:09.230 ,6,0,,0,0.,4.8,0.,4.8,,0,0.,4.8,0.,4.8
1981-08-30 12:23:14.030 ,5,0,,0,0.,4.8,0.,4.8,,0,0.,4.8,0.,4.8
1981-08-30 12:23:18.830 ,5,0,,0,0.,4.8,0.,4.8,,0,0.,4.8,0.,4.8
1981-08-30 12:23:23.630 ,5,0,,0,0.,4.8,0.,4.8,,0,0.,4.8,0.,4.8
1981-08-30 12:23:28.430 ,5,0,,0,0.,4.8,0.,4.8,,0,0.,4.8,0.,4.8
1981-08-30 12:23:33.230 ,5,0,,0,0.,4.8,0.,4.8,,0,0.,4.8,0.,4.8
1981-08-30 12:23:38.030 ,5,0,,0,0.,4.8,0.,4.8,,0,0.,4.8,0.,4.8
1981-08-30 12:23:42.830 ,5,0,,0,0.,4.8,0.,4.8,,0,0.,4.8,0.,4.8
1981-08-30 12:23:47.630 ,5,0,,0,0.,4.8,0.,4.8,,0,0.,4.8,0.,4.8
1981-08-30 12:23:52.430 ,5,0,,0,0.,4.8,0.,4.8,,0,0.,4.8,0.,4.8
1981-08-30 12:23:57.230 ,5,0,,0,0.,4.8,0.,4.8,,0,0.,4.8,0.,4.8
1981-08-30 12:24:02.030 ,4,0,,0,0.,4.8,0.,4.8,,0,0.,4.8,0.,4.8
1981-08-30 12:24:06.830 ,4,0,,0,0.,4.8,0.,4.8,,0,0.,4.8,0.,4.8
1981-08-30 12:24:11.630 ,4,0,,0,0.,4.8,0.,4.8,,0,0.,4.8,0.,4.8
1981-08-30 12:24:16.430 ,4,0,,0,0.,4.8,0.,4.8,,0,0.,4.8,0.,4.8
1981-08-30 12:24:21.230 ,4,0,,0,0.,4.8,0.,4.8,,0,0.,4.8,0.,4.8
1981-08-30 12:24:26.030 ,4,0,,0,0.,4.8,0.,4.8,,0,0.,4.8,0.,4.8
1981-08-30 12:24:30.830 ,4,0,,0,0.,4.8,0.,4.8,,0,0.,4.8,0.,4.8
1981-08-30 12:24:35.630 ,4,0,,0,0.,4.8,0.,4.8,,0,0.,4.8,0.,4.8
1981-08-30 12:24:40.430 ,4,0,,0,0.,4.8,0.,4.8,,0,0.,4.8,0.,4.8
1981-08-30 12:24:45.230 ,4,0,,0,0.,4.8,0.,4.8,,0,0.,4.8,0.,4.8
1981-08-30 12:24:50.030 ,3,0,,0,0.,4.8,0.,4.8,,0,0.,4.8,0.,4.8
1981-08-30 12:24:54.830 ,3,0,,0,0.,4.8,0.,4.8,,0,0.,4.8,0.,4.8
1981-08-30 12:24:59.630 ,3,0,,0,0.,4.8,0.,4.8,,0,0.,4.8,0.,4.8
1981-08-30 12:25:04.430 ,3,0,,0,0.,4.8,0.,4.8,,0,0.,4.8,0.,4.8
1981-08-30 12:25:09.230 ,3,0,,0,0.,4.8,0.,4.8,,0,0.,4.8,0.,4.8
1981-08-30 12:25:14.030 ,3,0,,0,0.,4.8,0.,4.8,,0,0.,4.8,0.,4.8
1981-08-30 12:25:18.830 ,3,0,,0,0.,4.8,0.,4.8,,0,0.,4.8,0.,4.8
1981-08-30 12:25:23.630 ,3,0,,0,0.,4.8,0.,4.8,,0,0.,4.8,0.,4.8
1981-08-30 12:25:28.430 ,3,0,,0,0.,4.8,0.,4.8,,0,0.,4.8,0.,4.8
1981-08-30 12:25:33.230 ,3,0,,0,0.,4.8,0.,4.8,,0,0.,4.8,0.,4.8
1981-08-30 12:25:38.030 ,2,0,,0,0.,4.8,0.,4.8,,0,0.,4.8,0.,4.8
1981-08-30 12:25:42.830 ,2,0,,0,0.,4.8,0.,4.8,,0,0.,4.8,0.,4.8
1981-08-30 12:25:47.630 ,2,0,,0,0.,4.8,0.,4.8,,0,0.,4.8,0.,4.8
1981-08-30 12:25:52.430 ,2,0,,0,0.,4.8,0.,4.8,,0,0.,4.8,0.,4.8
1981-08-30 12:25:57.230 ,2,0,,0,0.,4.8,0.,4.8,,0,0.,4.8,0.,4.8
1981-08-30 12:26:02.030 ,2,0,,0,0.,4.8,0.,4.8,,0,0.,4.8,0.,4.8
1981-08-30 12:26:06.830 ,2,0,,0,0.,4.8,0.,4.8,,0,0.,4.8,0.,4.8
1981-08-30 12:26:11.630 ,2,0,,0,0.,4.8,0.,4.8,,0,0.,4.8,0.,4.8
1981-08-30 12:26:16.430 ,2,0,,0,0.,4.8,0.,4.8,,0,0.,4.8,0.,4.8
1981-08-30 12:26:21.230 ,2,0,,0,0.,4.8,0.,4.8,,0,0.,4.8,0.,4.8
1981-08-30 12:26:26.030 ,1,0,,0,0.,4.8,0.,4.8,,0,0.,4.8,0.,4.8
1981-08-30 12:26:30.830 ,1,0,,0,0.,4.8,0.,4.8,,0,0.,4.8,0.,4.8
1981-08-30 12:26:35.630 ,1,0,,0,0.,4.8,0.,4.8,,0,0.,4.8,0.,4.8
1981-08-30 12:26:40.430 ,1,0,,0,0.,4.8,0.,4.8,,0,0.,4.8,0.,4.8
1981-08-30 12:26:45.230 ,1,0,,0,0.,4.8,0.,4.8,,0,0.,4.8,0.,4.8
1981-08-30 12:26:50.030 ,1,0,,0,0.,4.8,0.,4.8,,0,0.,4.8,0.,4.8
1981-08-30 12:26:54.830 ,1,0,,0,0.,4.8,0.,4.8,,0,0.,4.8,0.,4.8
1981-08-30 12:26:59.630 ,1,0,,0,0.,4.8,0.,4.8,,0,0.,4.8,0.,4.8
1981-08-30 12:27:04.430 ,1,0,,0,0.,4.8,0.,4.8,,0,0.,4.8,0.,4.8
1981-08-30 12:27:09.230 ,1,0,,0,0.,4.8,0.,4.8,,0,0.,4.8,0.,4.8
1981-08-30 12:27:14.030 ,0,0,,0,0.,4.8,0.,4.8,,0,0.,4.8,0.,4.8
1981-08-30 12:27:18.830 ,0,0,,0,0.,4.8,0.,4.8,,0,0.,4.8,0.,4.8
1981-08-30 12:27:23.630 ,0,0,,0,0.,4.8,0.,4.8,,0,0.,4.8,0.,4.8
1981-08-30 12:27:28.430 ,0,0,,0,0.,4.8,0.,4.8,,0,0.,4.8,0.,4.8
1981-08-30 12:27:33.230 ,0,0,,0,0.,4.8,0.,4.8,,0,0.,4.8,0.,4.8
1981-08-30 12:27:38.030 ,0,0,,0,0.,4.8,0.,4.8,,0,0.,4.8,0.,4.8
1981-08-30 12:27:42.830 ,0,0,,0,0.,4.8,0.,4.8,,0,0.,4.8,0.,4.8
1981-08-30 12:27:47.630 ,0,0,,0,0.,4.8,0.,4.8,,0,0.,4.8,0.,4.8
1981-08-30 12:27:52.430 ,0,0,,0,0.,4.8,0.,4.8,,0,0.,4.8,0.,4.8
1981-08-30 12:27:57.230 ,0,0,,0,0.,4.8,0.,4.8,,0,0.,4.8,0.,4.8
1981-08-30 12:28:02.030 ,0,0,,0,0.,4.8,0.,4.8,,0,0.,4.8,0.,4.8
1981-08-30 12:28:06.830 ,0,0,,0,0.,4.8,0.,4.8,,0,0.,4.8,0.,4.8
1981-08-30 12:28:11.630 ,0,0,,0,0.,4.8,0.,4.8,,0,0.,4.8,0.,4.8
1981-08-30 12:28:16.430 ,0,0,,0,0.,4.8,0.,4.8,,0,0.,4.8,0.,4.8
1981-08-30 12:28:21.230 ,0,0,,0,0.,4.8,0.,4.8,,0,0.,4.8,0.,4.8
1981-08-30 12:28:26.030 ,0,0,,0,0.,4.8,0.,4.8,,0,0.,4.8,0.,4.8
1981-08-30 12:28:30.830 ,0,0,,0,0.,4.8,0.,4.8,,0,0.,4.8,0.,4.8
1981-08-30 12:28:35.630 ,0,0,,0,0.,4.8,0.,4.8,,0,0.,4.8,0.,4.8
1981-08-30 12:28:40.430 ,0,0,,0,0.,4.8,0.,4.8,,0,0.,4.8,0.,4.8
1981-08-30 12:28:45.230 ,0,0,,0,0.,4.8,0.,4.8,,0,0.,4.8,0.,4.8
1981-08-30 12:28:50.030 ,1,0,,0,0.,4.8,0.,4.8,,0,0.,4.8,0.,4.8
1981-08-30 12:28:54.830 ,1,0,,0,1.,4.8,0.,4.8,,0,0.,4.8,0.,4.8
1981-08-30 12:28:59.630 ,1,0,,0,0.,4.8,0.,4.8,,0,0.,4.8,0.,4.8
1981-08-30 12:29:04.430 ,1,0,,0,0.,4.8,0.,4.8,,0,0.,4.8,0.,4.8
1981-08-30 12:29:09.230 ,1,0,,0,0.,4.8,0.,4.8,,0,0.,4.8,0.,4.8
1981-08-30 12:29:14.030 ,1,0,,0,0.,4.8,0.,4.8,,0,0.,4.8,0.,4.8
1981-08-30 12:29:18.830 ,1,0,,0,0.,4.8,0.,4.8,,0,0.,4.8,0.,4.8
1981-08-30 12:29:23.630 ,1,0,,0,0.,4.8,0.,4.8,,0,0.,4.8,0.,4.8
1981-08-30 12:29:28.430 ,1,0,,0,0.,4.8,0.,4.8,,0,0.,4.8,0.,4.8
1981-08-30 12:29:33.230 ,1,0,,0,0.,4.8,0.,4.8,,0,0.,4.8,0.,4.8
1981-08-30 12:29:38.030 ,2,0,,0,1.,4.8,0.,4.8,,0,0.,4.8,0.,4.8
1981-08-30 12:29:42.830 ,2,0,,0,0.,4.8,0.,4.8,,0,0.,4.8,0.,4.8
1981-08-30 12:29:47.630 ,2,0,,0,0.,4.8,0.,4.8,,0,0.,4.8,0.,4.8
1981-08-30 12:29:52.430 ,2,0,,0,0.,4.8,0.,4.8,,0,0.,4.8,0.,4.8
1981-08-30 12:29:57.230 ,2,0,,0,1.,4.8,0.,4.8,,0,0.,4.8,0.,4.8
1981-08-30 12:30:02.030 ,2,0,,0,0.,4.8,0.,4.8,,0,0.,4.8,0.,4.8
1981-08-30 12:30:06.830 ,2,0,,0,0.,4.8,0.,4.8,,0,0.,4.8,0.,4.8
1981-08-30 12:30:11.630 ,2,0,,0,0.,4.8,0.,4.8,,0,0.,4.8,0.,4.8